Location: Budyn?
(49.1459°N, 14.0713°E)
Time: 00:39:14
(UTC+00:00)

Daily predictions for brighter satellites

Satellite Brightness Start Highest point End
(mag) Time Altitude Azimuth Time Altitude Azimuth Time Altitude Azimuth
Cosmos 1943 Rocket 4.3 02:25:02 22° E 02:25:02 22° E 02:28:54 10° NE
CENTAUR R/B 4.0 02:28:55 30° ESE 02:28:55 30° ESE 02:34:17 10° NE
Cosmos 2278 Rocket 4.3 02:51:58 19° NNE 02:51:58 19° NNE 02:53:27 10° NNE
Cosmos 2344 3.7 02:53:31 64° SE 02:53:45 64° SE 03:01:25 10° NE
USA 238 DEB 4.3 03:12:40 40° SSE 03:14:23 49° ESE 03:20:55 10° NE
USA 238 4.3 03:12:43 39° SSE 03:14:30 49° ESE 03:21:01 10° NE
BREEZE-M DEB (TANK) 4.1 03:15:56 41° SE 03:15:56 41° SE 03:22:24 10° ESE
USA 215 3.2 03:18:35 10° ESE 03:25:05 73° NNE 03:25:43 68° NNW
Cosmos 2369 Rocket 3.6 03:33:39 10° S 03:38:41 36° ESE 03:43:45 10° NE
Cosmos 1634 Rocket 4.3 03:37:57 10° N 03:44:14 67° ENE 03:50:26 10° SSE
NOSS 3-3 (A) 4.5 03:44:28 58° W 03:45:36 64° SW 03:53:56 10° SSE
NOSS 3-3 (C) 4.5 03:44:32 58° W 03:45:42 65° SW 03:54:01 10° SSE
COSMO-SKYMED 1 3.3 03:43:42 10° SE 03:47:54 52° ENE 03:48:35 46° NE
Cosmos 1867 4.3 03:50:15 40° S 03:50:15 40° S 03:53:58 10° SSE
MOS 1-B Rocket 3.9 03:44:49 10° SSE 03:51:07 86° ENE 03:54:14 29° NNW
Cosmos 2208 Rocket 4.3 03:52:18 54° SSW 03:52:18 54° SSW 03:56:33 10° S
H-2A R/B 3.8 03:49:00 10° NNE 03:52:34 42° E 03:56:08 10° S
Tsikada Rocket 3.9 03:47:00 10° S 03:53:13 90° ENE 03:59:33 10° N
Gblst 52 Del rocket 4.4 03:54:35 60° SW 03:55:47 83° SSE 04:02:34 10° ENE
Cosmos 1943 Rocket 2.1 04:06:38 53° WSW 04:07:54 71° WNW 04:13:35 10° NNE
CZ-2C R/B 2.6 04:03:36 10° SSE 04:09:06 85° ENE 04:13:25 17° NNW
SL-19 R/B 4.2 04:05:48 10° S 04:11:21 66° WSW 04:13:20 40° NW
SKYMED 3 4.5 04:07:37 10° SSE 04:11:58 88° ENE 04:12:58 53° NNW
CZ-4C R/B 3.8 04:09:31 10° SE 04:12:30 42° ENE 04:12:32 42° ENE
SL-8 R/B 3.6 04:16:23 62° WSW 04:17:04 73° SSW 04:21:49 10° ESE
CENTAUR R/B 2.5 04:16:08 39° WSW 04:18:33 68° NW 04:25:53 10° NE
Cosmos 2297 3.7 04:21:06 40° WSW 04:22:52 57° WNW 04:28:31 10° NNE
FALCON 9 DEB 4.2 04:25:20 33° NE 04:25:20 33° NE 04:27:09 10° ENE
Iridium 2 3.5 04:23:39 10° S 04:27:26 86° W 04:31:15 10° N
SJ 16-02 4.3 04:26:34 10° SE 04:29:31 18° E 04:32:28 10° NE
NOSS 3-2 (A) 3.6 04:27:50 39° W 04:29:39 51° NW 04:36:14 10° NE
FALCON 9 DEB 4.0 04:31:50 33° NE 04:31:50 33° NE 04:33:46 10° ENE
Cosmos 2278 Rocket 3.8 04:33:50 18° NNW 04:33:50 18° NNW 04:36:48 10° N
FALCON 9 DEB 3.9 04:33:52 34° NNE 04:33:52 34° NNE 04:35:50 10° ENE
Envisat 2.9 04:29:40 10° N 04:34:45 74° WNW 04:39:49 10° SSW
Meteor 2-6 Rocket 4.0 04:30:23 10° NNW 04:35:51 84° W 04:41:14 10° S
SKYMED 2 3.6 04:31:43 10° S 04:35:58 54° W 04:37:12 39° NW
NOSS 3-2 (C) 3.3 04:33:35 25° WSW 04:37:01 68° NW 04:43:41 10° NE
Cosmos 2098 Rocket 2.9 04:38:35 10° SSW 04:42:28 69° WNW 04:47:28 10° N
SL-27 R/B 3.7 04:40:34 16° N 04:43:07 41° ENE 04:46:30 10° SE
Meteor 2-3 Rocket 4.1 04:38:05 10° SW 04:43:24 41° WNW 04:48:49 10° N
Landsat 5 3.7 04:41:10 10° S 04:45:36 56° W 04:48:26 21° NNW
Cosmos 968 Rocket 3.6 04:42:39 14° SW 04:46:53 49° WNW 04:51:52 10° NNE
CZ-4B R/B 4.0 04:42:52 10° N 04:47:17 65° WNW 04:51:42 10° SSW
Meteor 2-13 Rocket 4.5 04:41:45 10° SSW 04:47:44 56° WNW 04:53:43 10° N
FALCON 9 DEB 3.0 04:49:58 48° NNW 04:49:58 48° NNW 04:52:45 10° ENE
Cosmos 921 Rocket 3.8 04:50:35 31° W 04:50:50 32° W 04:54:46 10° SSW
Meteor 1-10 Rocket 4.1 04:46:14 10° NNW 04:51:50 85° W 04:57:22 10° S
Okean 3 Rocket 3.5 04:49:36 10° SSW 04:54:08 73° W 04:58:42 10° N
Cosmos 1833 4.2 04:51:16 18° NW 04:55:34 70° WSW 05:01:16 10° SSE
DNEPR-1 R/B 4.1 04:53:15 28° WNW 04:55:40 56° SW 05:01:09 10° SSE
H-2A R/B 2.5 04:51:58 10° SSE 04:56:10 64° ENE 05:00:30 10° N
ATLAS 5 CENTAUR R/B 4.2 04:53:20 10° SSE 04:56:11 20° ESE 04:59:15 10° ENE
Cosmos 1812 3.4 04:56:57 32° W 04:57:01 32° W 05:00:27 10° SSW
CBERS 1 LM4 rocket 4.4 04:53:12 10° N 04:57:56 57° WNW 05:02:48 10° SSW
ADEOS 3.5 04:53:01 10° NNE 04:58:17 88° WNW 05:03:31 10° SSW
DMSP B5D1-3 4.5 04:54:27 10° SSE 04:59:36 87° WSW 05:04:49 10° NNW
SJ-7 4.5 04:55:27 10° NNE 04:59:42 84° ESE 05:03:51 10° SSW
Cosmos 1151 Rocket 3.6 05:01:35 21° NW 05:03:51 35° W 05:07:51 10° SSW
Cosmos 1354 Rocket 4.2 04:59:10 10° SSW 05:04:25 79° ESE 05:09:45 10° NNE
USA 238 DEB 3.9 05:00:11 16° WSW 05:05:23 50° NW 05:12:10 10° NE
USA 238 3.9 05:00:14 16° WSW 05:05:29 50° NW 05:12:17 10° NE
CZ-2C R/B 3.1 05:01:28 10° NNE 05:06:18 77° ESE 05:11:20 10° S
Cosmos 1766 Rocket 3.7 05:03:11 10° SSW 05:07:23 47° WNW 05:11:35 10° N
USA 215 3.7 05:02:07 10° SSE 05:08:21 47° SW 05:13:03 18° WNW
Cosmos 2344 4.0 05:03:34 19° W 05:08:38 42° NNW 05:16:35 10° NE
Cosmos 2263 4.1 05:02:57 10° SW 05:08:39 71° WNW 05:14:26 10° NNE
Geosat FO 4.3 05:05:48 10° SSE 05:09:06 76° WSW 05:11:21 19° NW
Meteor PRIRODA 3.5 05:08:02 10° NNE 05:11:40 87° WNW 05:15:17 10° SSW
Meteor 1-31 Rocket 3.4 05:09:36 10° N 05:13:08 33° WNW 05:16:40 10° SW
Cosmos 2279 Rocket 4.3 05:08:33 10° NNW 05:14:23 44° W 05:20:11 10° SSW
Cosmos 2297 Rocket 3.7 05:11:04 10° NNW 05:16:03 30° NE 05:21:00 10° ESE
Cosmos 1328 Rocket 4.1 05:12:41 11° NNW 05:16:32 36° W 05:20:32 10° SSW
IRAS Rocket 4.3 05:12:17 10° S 05:17:41 56° WSW 05:23:07 10° NNW
BREEZE-M DEB (TANK) 4.1 05:08:37 10° SW 05:19:00 49° SSE 05:22:16 10° E
SMAP 3.6 05:17:26 10° NNE 05:22:04 62° ESE 05:26:40 10° S
Cosmos 2369 Rocket 2.5 05:17:17 10° SW 05:22:37 44° NW 05:28:00 10° NNE
FALCON 9 DEB 3.3 05:21:07 20° W 05:23:11 51° NNW 05:26:31 10° ENE
Cosmos 1862 4.0 05:20:13 10° SW 05:23:45 31° WNW 05:27:18 10° N
COSMO-SKYMED 1 4.0 05:21:16 10° SW 05:24:22 19° W 05:25:48 16° WNW
H-2A R/B 4.1 05:23:49 10° NNW 05:26:24 18° WNW 05:28:59 10° WSW
Nadezhda 4 Rocket 3.9 05:20:36 10° SSW 05:26:45 81° W 05:33:02 10° N
Cosmos 1607 4.4 05:23:50 10° NW 05:30:03 59° NE 05:36:08 10° SE
CZ-2D R/B 4.5 05:27:53 10° NNE 05:31:33 45° E 05:35:11 10° S
Cosmos 1538 Rocket 4.2 05:26:31 10° NNW 05:31:49 75° ENE 05:37:00 10° SSE
H-2A R/B 3.4 05:28:38 10° NNE 05:33:18 41° E 05:37:57 10° SSE
Meteor 2-15 Rocket 4.5 05:28:16 10° NNW 05:34:13 58° W 05:40:09 10° S
Cosmos 2228 Rocket 3.3 05:30:19 10° N 05:34:49 75° E 05:39:20 10° SSE
CZ-4B R/B 2.7 05:32:30 10° N 05:36:01 51° WNW 05:39:29 10° SSW
Lacrosse 4 Rocket 3.8 05:35:24 10° N 05:38:19 17° NE 05:41:14 10° ENE
CZ-4B R/B 1.3 05:36:39 10° SSE 05:39:59 82° WSW 05:43:18 10° NNW
Cosmos 1092 Rocket 4.2 05:34:45 10° S 05:41:00 80° E 05:47:20 10° NNE
Cosmos 2263 Rocket 4.4 05:39:49 10° N 05:42:18 13° NNE 05:44:47 10° NE
Cosmos 1408 Rocket 3.8 05:38:41 10° SSW 05:42:47 42° WNW 05:46:55 10° N
USA 32 4.0 05:41:04 10° N 05:46:18 73° W 05:51:31 10° S
Cosmos 1656 Rocket 4.0 05:41:15 10° WSW 05:46:19 39° NW 05:51:27 10° NNE
Meteor 1-20 Rocket 4.4 05:40:54 10° S 05:46:28 81° E 05:52:11 10° NNE
Cosmos 1503 Rocket 4.3 05:41:31 10° SW 05:46:34 44° WNW 05:51:40 10° NNE
Cosmos 1743 Rocket 3.5 05:45:41 10° SSW 05:50:03 65° WNW 05:54:25 10° N
CZ-2C R/B 4.2 05:46:45 10° SW 05:50:04 16° W 05:53:20 10° NW
AQUARIUS 4.1 05:45:35 10° NNE 05:50:07 83° WNW 05:54:36 10° SSW
Cosmos 2227 Rocket 3.4 05:46:12 10° NNW 05:51:29 38° NE 05:56:42 10° ESE
FAST Rocket 4.3 05:49:40 10° SSW 05:52:11 45° WNW 05:55:14 10° N
Cosmos 1943 Rocket 3.6 05:48:51 10° W 05:52:42 18° NW 05:56:34 10° N
PSLV R/B 3.9 05:51:22 10° NNE 05:55:18 88° ESE 05:59:18 10° SSW
CZ-4B DEB 4.4 05:50:33 10° NNE 05:56:03 80° ESE 06:01:31 10° SSW
PSLV R/B 3.9 05:53:23 10° S 05:57:24 67° WSW 06:01:30 10° NNW
Cosmos 1777 Rocket 4.0 05:52:57 10° SSW 05:58:08 69° WNW 06:03:24 10° NNE
CORIOLIS 4.2 05:53:55 10° NNE 05:59:24 81° WNW 06:04:50 10° SSW
FALCON 9 DEB 3.5 05:56:59 10° WNW 05:59:42 35° N 06:02:25 10° ENE
Meteor 1-27 Rocket 4.2 05:54:41 10° NNW 05:59:53 40° W 06:05:10 10° SSW
NOAA 6 4.0 05:56:24 10° N 06:01:30 68° WNW 06:06:34 10° SSW
Cosmos 1602 3.6 05:58:39 10° SSW 06:02:27 71° WNW 06:06:17 10° N
COSMOS 2487 2.5 06:01:11 10° NNW 06:04:28 54° WSW 06:07:44 10° S
Cosmos 923 Rocket 4.4 06:01:57 10° NNW 06:07:18 68° ENE 06:12:38 10° SSE
